Location: Excel
(51.3833°N, 110.5667°W)
Time: 20:25:48
(UTC+00:00)

Envisat - Pass Details

Date: 04 December 2021
Orbit: 764 x 766 km, 98.2° (Epoch: 26 January)

Event Time Altitude Azimuth Distance (km) Brightness Sun altitude
Rises 13:50:08 0° 7° (N) 3,248 6.1 -11.7°
Reaches altitude 10° 13:52:44 10° 355° (N) 2,317 5.2 -11.3°
Maximum altitude 13:56:56 27° 300° (WNW) 1,458 3.9 -10.7°
Drops below altitude 10° 14:01:07 10° 244° (WSW) 2,304 5.1 -10.1°
Sets 14:03:43 0° 232° (SW) 3,225 5.9 -9.7°
